Theta_e
313 312 313 313 310 311 311 310 311 309 309 311 309 311 311 310 309 311 314 318 320 320 317 318 318 320 324 327 329 330 330 332 333 331 333 334 334 328 331 329 329 328 328 327
312 314 311 312 311 311 310 310 309 310 310 310 309 309 308 309 309 311 313 313 315 315 315 315 317 319 322 325 327 330 329 328 331 330 330 332 330 329 328 326 328 328 327 327
312 312 312 314 312 311 310 310 309 310 309 309 309 309 308 308 311 311 311 313 312 313 313 313 313 315 317 323 326 328 329 328 328 329 330 332 333 332 332 329 325 327 327 327
309 312 312 313 314 311 313 308 309 309 309 310 307 312 306 305 307 308 311 313 314 313 312 313 313 313 315 317 324 326 329 329 329 328 329 330 330 330 328 327 325 323 325 325
309 307 313 313 312 309 311 309 310 309 308 308 307 305 307 304 305 305 308 312 314 314 314 313 313 313 313 313 317 325 329 329 330 330 331 332 332 332 332 331 327 326 325 324
307 307 309 311 309 309 308 309 308 306 305 308 307 306 306 303 305 306 307 310 313 313 314 313 313 313 312 313 316 322 325 326 327 328 328 328 331 332 333 328 327 326 324 323
306 307 307 307 308 308 308 310 309 309 309 309 304 304 310 306 303 305 306 310 309 311 312 312 313 313 312 313 315 317 317 317 317 317 320 321 323 328 330 327 326 325 324 322
308 309 306 306 307 308 308 308 309 309 308 307 304 306 307 305 306 307 308 309 309 309 310 311 311 311 312 312 312 312 312 312 311 311 311 310 311 317 324 330 326 323 323 322
307 307 306 306 307 307 307 310 307 307 302 309 306 304 305 305 304 307 308 308 309 310 310 311 311 311 311 311 311 311 311 311 311 311 310 309 309 310 319 326 323 323 323 322
305 308 307 307 307 307 306 306 309 308 309 309 307 305 306 306 307 305 307 308 309 310 311 311 311 311 311 311 311 311 313 313 313 311 310 309 309 310 315 323 324 322 322 321
305 307 308 307 306 306 306 307 307 307 309 310 307 307 303 307 306 306 307 309 310 310 310 311 311 311 311 311 311 312 314 314 314 312 312 313 314 315 319 323 322 319 319 319
307 306 306 306 306 306 307 306 308 309 308 306 307 309 304 303 306 306 308 310 311 311 311 311 311 311 311 311 311 312 313 313 314 314 314 313 314 317 322 323 321 317 316 317
306 305 303 309 307 307 307 306 306 304 306 308 310 308 303 305 306 308 307 309 311 311 311 311 311 311 311 311 311 311 312 313 314 314 315 315 316 318 319 321 320 316 315 316
308 307 306 308 308 307 308 307 306 306 308 306 307 308 306 306 306 308 307 307 310 311 311 311 310 310 310 310 310 311 311 312 314 314 314 315 315 316 316 315 315 315 315 312
307 304 305 307 307 306 306 308 306 307 308 308 309 306 307 305 306 308 309 308 308 310 310 311 310 310 310 310 310 310 310 311 312 313 314 314 315 315 315 314 312 309 306 304
304 302 304 304 306 307 307 307 308 308 307 307 306 305 305 307 308 309 310 309 308 309 310 310 310 310 310 310 310 310 309 310 310 310 311 311 311 310 308 307 306 303 301 298
307 302 305 304 304 306 306 306 306 307 307 307 306 308 304 305 305 308 310 311 311 311 311 311 311 310 310 310 309 309 309 309 309 308 308 307 307 306 305 303 300 298 297 296
305 305 304 306 306 310 308 306 305 306 305 306 305 306 305 307 309 310 310 311 311 311 311 311 311 310 310 309 309 308 308 308 307 307 306 305 305 303 301 298 297 296 296 295
304 303 302 305 298 304 304 303 304 306 308 305 306 304 305 307 307 308 309 310 310 310 310 310 310 310 310 309 308 307 307 306 306 305 304 303 301 299 297 296 296 295 294 294
303 304 305 292 301 305 303 303 305 304 307 301 305 304 305 306 306 306 308 309 309 309 309 309 310 310 309 309 308 307 306 306 305 304 302 301 298 297 296 296 295 294 293 292
301 302 307 299 297 300 300 304 305 307 305 302 304 305 304 305 306 307 308 308 309 309 309 309 309 309 309 308 307 306 306 305 304 302 300 298 297 296 295 294 293 292 292 293
307 306 302 297 298 307 301 304 305 305 303 306 306 306 305 306 307 307 308 308 308 308 309 309 309 309 308 307 307 306 305 304 302 300 298 296 295 295 293 292 291 294 299 298
308 304 304 305 304 303 304 305 305 306 306 306 307 307 306 306 306 307 307 307 307 308 308 308 308 308 308 307 306 305 304 302 300 298 296 295 294 293 292 291 297 300 296 293
303 302 305 307 304 303 304 305 305 305 305 304 305 305 305 305 305 305 305 305 305 305 306 307 307 307 307 306 304 303 302 301 298 296 295 295 294 292 292 298 299 294 290 290
301 301 299 299 301 302 302 305 305 303 303 304 304 304 304 305 305 305 305 305 304 304 305 305 306 305 305 304 303 301 300 299 297 295 295 294 292 292 299 297 292 290 289 288
296 299 304 302 303 305 305 305 305 305 304 303 303 303 303 304 303 304 303 303 303 303 303 304 304 304 303 303 302 300 298 296 295 295 295 293 294 300 297 294 290 289 288 287
Wind_Speed
10 5 16 16 6 1 7 8 4 5 5 3 7 7 11 7 17 19 25 30 31 32 28 28 25 26 28 28 27 25 27 28 27 25 27 27 27 23 27 26 24 23 23 21
3 17 7 6 2 2 3 5 7 1 2 4 1 10 9 4 12 28 31 30 33 31 31 28 29 30 31 30 29 31 27 26 27 26 26 27 23 22 21 20 27 27 26 25
5 4 8 6 4 6 4 5 4 3 2 3 2 6 7 6 19 19 25 29 30 31 30 30 31 32 30 34 32 33 31 26 25 24 25 27 26 25 23 23 22 26 25 26
3 4 14 12 16 8 10 6 4 4 4 4 2 9 6 7 9 10 30 30 33 32 29 27 28 32 32 31 31 32 33 31 27 26 27 28 28 26 23 20 16 15 21 23
7 10 12 15 8 8 5 5 6 3 3 2 2 1 7 1 7 9 25 39 43 40 32 28 27 28 31 29 30 32 33 33 34 33 33 33 34 30 24 21 17 17 18 20
8 5 12 13 9 10 7 5 4 3 3 3 7 7 5 6 8 6 14 35 44 42 35 30 28 29 31 30 29 31 32 32 33 34 34 34 35 33 28 24 22 20 20 19
3 3 2 8 6 3 8 11 2 1 2 6 1 4 13 6 7 7 10 16 22 31 33 32 30 30 31 33 32 31 31 31 32 34 35 34 33 31 29 24 22 20 19 18
10 8 8 4 6 8 8 7 5 7 5 2 2 7 6 8 6 16 15 8 11 21 27 28 28 28 28 28 29 29 29 29 30 32 34 33 30 27 24 25 22 19 17 17
8 6 2 2 2 8 5 9 4 6 2 3 4 6 9 6 9 10 13 15 16 22 26 25 24 24 25 25 25 24 24 23 22 23 25 26 25 24 24 24 20 20 18 16
7 5 1 2 2 1 8 10 4 2 4 3 3 5 5 4 12 9 9 19 22 23 24 23 23 22 21 20 20 20 19 17 16 17 17 16 17 20 23 22 21 18 19 19
5 5 2 2 6 8 3 3 2 4 4 5 1 6 8 15 7 9 12 19 23 25 23 22 21 19 18 18 18 17 16 15 14 15 15 15 15 17 20 23 20 15 14 14
2 5 4 6 2 2 1 7 10 6 8 1 3 9 2 7 5 10 16 20 22 21 21 20 19 19 19 19 18 17 16 14 14 15 14 15 17 19 22 23 23 15 14 15
8 1 3 3 3 1 4 4 4 5 3 7 7 7 1 6 5 6 11 20 23 22 21 20 20 19 19 20 19 17 16 16 15 14 15 16 18 20 21 22 20 16 15 15
13 4 8 12 5 8 5 5 4 5 3 3 7 4 6 5 5 4 4 14 24 24 23 22 21 20 21 19 18 18 18 18 17 16 15 15 16 18 19 18 18 16 15 15
6 6 4 2 2 3 5 10 10 8 17 10 17 9 13 5 6 9 6 11 21 24 25 24 24 24 23 21 20 20 18 19 18 18 17 17 17 17 16 17 17 17 17 15
2 3 3 1 2 2 1 7 16 23 16 19 3 7 3 5 6 9 14 17 23 26 27 27 26 25 26 25 23 22 22 20 19 18 18 18 18 18 18 18 18 17 16 14
12 7 4 5 1 3 5 10 13 12 14 12 15 15 6 5 9 16 18 22 25 25 24 26 26 26 26 26 25 25 22 21 21 20 20 20 20 20 20 19 18 16 14 12
6 6 3 2 2 3 5 4 8 16 9 17 1 4 12 18 24 20 25 27 27 24 22 24 24 26 27 26 26 24 24 24 23 22 22 22 22 21 21 19 17 15 13 11
1 5 3 5 5 5 7 6 7 8 16 16 18 7 8 13 10 18 25 26 24 22 21 22 23 25 25 26 27 27 26 25 25 25 25 24 23 22 21 19 16 15 13 10
4 4 4 3 7 12 1 6 11 7 15 7 17 13 17 14 5 9 18 17 16 21 22 21 21 23 26 28 29 29 29 28 27 27 25 24 24 22 20 18 16 14 12 9
3 3 11 3 4 8 7 5 10 9 7 1 9 17 18 9 12 9 11 15 17 18 19 20 20 20 24 29 31 31 29 29 27 26 26 26 25 23 21 19 16 13 9 6
7 6 4 3 1 13 9 5 10 4 3 5 6 8 19 20 10 11 10 10 11 12 13 14 15 18 21 26 30 30 29 27 27 28 27 26 25 23 20 17 13 9 9 10
3 6 6 9 6 2 20 2 12 6 9 9 8 8 10 11 9 8 6 5 4 5 6 7 9 13 17 23 28 28 28 29 30 30 28 26 24 21 18 15 11 11 12 14
4 3 3 3 3 5 16 9 10 7 9 12 12 12 10 8 7 5 3 2 2 3 4 6 8 13 17 23 26 26 26 29 30 29 28 26 23 20 18 15 13 15 15 17
4 9 6 3 2 1 7 15 12 10 13 11 10 9 7 5 3 3 3 4 6 7 7 9 10 13 16 21 24 25 26 28 29 29 27 25 22 19 16 15 16 18 18 16
6 6 5 5 10 5 7 22 16 14 10 7 4 2 1 0 2 3 5 6 8 9 10 12 13 14 17 21 24 25 27 27 28 27 25 22 21 18 17 20 21 20 18 17
Wind_Direction
181 149 196 185 161 265 184 199 210 198 148 214 218 237 242 210 217 224 222 220 219 221 228 225 221 220 220 221 227 229 233 238 235 236 235 239 242 241 236 238 241 246 249 251
143 214 157 149 152 234 243 195 199 338 85 150 114 260 266 233 222 219 222 227 229 229 233 230 227 223 223 224 223 229 233 236 236 238 239 243 252 256 260 257 245 245 249 252
176 170 149 211 207 227 213 203 177 154 143 109 85 277 252 239 238 236 237 237 242 240 239 237 231 228 226 227 227 229 231 235 235 240 242 243 247 248 248 252 250 244 248 250
227 217 174 196 225 197 225 199 171 139 129 199 141 254 256 235 238 229 236 236 240 239 238 241 235 228 226 227 226 229 231 235 237 238 241 243 248 249 256 268 275 254 251 254
214 172 181 210 194 179 203 177 190 172 143 111 168 260 265 316 247 242 242 236 236 238 237 238 231 225 225 225 225 225 227 232 236 237 241 244 247 252 256 264 266 256 252 251
203 187 179 190 174 192 155 80 43 63 95 264 199 182 243 202 208 240 242 240 238 236 229 227 224 221 223 221 220 225 227 232 238 241 242 244 245 247 247 253 256 255 256 253
145 228 219 153 132 132 170 143 171 237 181 223 79 157 241 257 242 228 253 264 239 229 225 221 219 218 218 215 218 223 229 234 238 243 245 244 244 245 244 245 249 254 258 253
171 213 172 188 188 175 192 159 167 188 191 189 90 224 248 233 272 253 253 269 223 205 208 210 209 209 211 213 218 225 234 239 244 246 247 245 242 236 234 232 239 243 246 245
161 212 321 189 168 152 186 193 159 101 12 82 203 286 297 249 265 255 243 232 208 197 197 198 200 205 213 221 229 236 241 243 240 238 236 237 235 228 225 220 223 237 240 238
187 163 322 232 154 137 181 161 180 22 132 233 280 278 236 266 236 221 219 211 199 195 194 198 206 213 218 224 228 227 225 221 223 223 221 220 218 214 215 218 223 233 235 239
143 111 219 176 213 158 136 186 111 126 156 184 194 253 218 228 215 217 219 213 198 196 197 200 204 206 208 212 212 212 210 209 208 208 208 208 206 204 204 207 215 219 227 227
161 112 148 206 238 125 332 182 180 183 222 239 147 255 239 236 226 226 218 209 204 206 204 203 204 206 204 205 205 206 205 205 206 208 206 205 205 205 206 210 220 215 216 220
178 112 77 4 357 11 214 210 164 111 74 199 197 247 339 286 280 263 221 207 204 204 203 205 208 208 208 205 203 205 205 204 203 201 200 202 201 201 205 211 224 209 203 209
136 138 170 203 212 136 195 189 175 142 171 173 232 221 280 265 284 287 247 204 200 202 205 208 212 211 215 211 210 208 205 204 204 201 199 203 201 206 206 200 193 191 196 202
136 174 147 80 319 123 186 179 168 190 218 195 235 201 237 218 225 256 246 202 198 203 205 210 215 215 217 217 215 213 211 210 206 204 202 202 199 196 192 187 184 185 190 194
180 181 120 22 23 193 167 196 201 211 219 230 97 248 231 215 178 199 214 201 205 208 213 215 218 220 223 221 219 215 211 209 205 203 200 195 192 188 188 186 186 189 192 195
184 131 125 222 22 98 308 211 211 219 219 204 219 233 173 205 213 219 218 216 218 214 215 220 223 223 223 222 220 216 212 208 205 201 198 196 193 192 191 190 191 192 194 200
138 120 64 154 64 208 251 204 191 207 220 221 54 202 191 217 231 236 235 227 218 227 231 233 234 230 225 221 218 214 212 209 205 201 200 198 197 196 195 194 195 196 201 209
46 125 115 146 196 296 252 248 149 176 252 217 217 196 211 214 219 236 233 232 242 248 252 252 250 241 232 223 217 214 211 209 206 204 201 200 199 199 199 199 197 202 208 214
54 82 119 119 169 224 74 200 177 99 264 219 194 196 204 162 195 232 229 229 240 247 249 250 247 237 228 224 218 215 212 210 208 205 203 203 202 201 202 202 204 208 213 221
94 63 206 137 226 286 237 162 147 161 258 99 215 215 188 192 214 204 219 234 244 248 247 244 238 235 229 220 215 214 213 213 210 206 205 205 204 204 202 205 206 208 217 234
151 151 185 93 118 257 166 101 164 204 121 162 155 188 200 210 207 217 223 223 224 229 234 236 234 230 224 217 215 214 213 212 209 208 207 205 205 204 204 205 203 214 253 271
200 184 173 181 209 216 185 179 202 179 169 163 148 144 161 167 177 179 180 195 213 225 231 238 239 236 227 218 218 218 215 211 209 206 204 203 203 205 207 205 226 255 256 261
244 190 181 110 212 194 199 206 189 186 173 152 141 138 139 139 153 167 181 209 239 248 251 249 245 235 226 216 215 217 216 211 209 207 205 204 206 208 207 225 245 248 253 255
186 145 163 289 296 356 217 203 186 164 158 154 149 145 147 154 176 226 251 257 259 261 262 253 243 237 225 217 214 213 214 213 209 205 205 206 208 208 229 242 246 249 251 256
188 173 174 220 189 177 197 195 178 172 168 172 179 153 121 206 272 275 270 258 257 264 268 264 251 235 225 222 220 216 212 212 211 210 211 212 214 236 243 243 242 246 249 256